Weather History for KAWM - March, 2013

Change the Weather History Date:

Tuesday, March 5, 2013

  Actual Average Record
Temperature  
Mean Temperature 48 °F -  
Max Temperature 59 °F 58 °F 77 °F (1976)
Min Temperature 36 °F 37 °F 14 °F (2015)
Degree Days  
Heating Degree Days 18    
Moisture  
Dew Point 41 °F    
Average Humidity 78    
Maximum Humidity 100    
Minimum Humidity 42    
Precipitation  
Precipitation 0.27 in - - ()
Sea Level Pressure  
Sea Level Pressure 29.95 in    
Wind  
Wind Speed 14 mph (WNW)    
Max Wind Speed 22 mph    
Max Gust Speed 37 mph    
Visibility 9 miles    
Events Rain    
Averages and records for this station are not official NWS values.
T = Trace of Precipitation, MM = Missing Value Source: NWS Daily Summary

Daily Weather History Graph

Daily Weather History Graph

Search for Another Location

Airport or City:

Trip Planner

Search our weather history database for the weather conditions in past years. The results will help you decide how hot, cold, wet, or windy it might be!

Date:

Astronomy

Mar. 05, 2013 Rise Set
Actual Time 6:24 AM CST 6:00 PM CST
Civil Twilight 5:59 AM CST 6:25 PM CST
Nautical Twilight 5:30 AM CST 6:55 PM CST
Astronomical Twilight 5:00 AM CST 7:24 PM CST
Moon 1:27 AM CST (3/5) 11:49 AM CST (3/5)
Length of Visible Light 12h 26m
Length of Day
11h 35m
Last Quarter, 40% of the Moon is Illuminated
Mar 5
Last Quarter
Mar 11
New
Mar 19
First Quarter
Mar 27
Full
Apr 2
Last Quarter

Hourly Weather History & Observations

Time (CST) Temp. Windchill Dew Point Humidity Pressure Visibility Wind Dir Wind Speed Gust Speed Precip Events Conditions
1:53 AM 59.0 °F - 51.1 °F 75% 29.76 in 10.0 mi South 15.0 mph - N/A   Clear
2:31 AM 59.0 °F - 51.8 °F 77% 29.77 in 10.0 mi South 16.1 mph 19.6 mph N/A   Overcast
2:45 AM 59.0 °F - 51.8 °F 77% 29.76 in 10.0 mi SSW 13.8 mph - N/A   Overcast
2:53 AM 59.0 °F - 52.0 °F 78% 29.76 in 10.0 mi South 11.5 mph 19.6 mph N/A   Overcast
3:44 AM 57.2 °F - 53.6 °F 88% 29.76 in 10.0 mi SSW 18.4 mph 23.0 mph N/A   Overcast
3:51 AM 57.2 °F - 53.6 °F 88% 29.77 in 10.0 mi South 15.0 mph 23.0 mph N/A   Overcast
3:53 AM 57.9 °F - 53.1 °F 84% 29.76 in 10.0 mi SSW 13.8 mph 21.9 mph N/A   Overcast
4:53 AM 57.9 °F - 54.0 °F 87% 29.77 in 10.0 mi SSW 11.5 mph - N/A   Overcast
5:12 AM 57.2 °F - 53.6 °F 88% 29.78 in 10.0 mi SSW 10.4 mph - N/A   Overcast
5:53 AM 57.9 °F - 54.0 °F 87% 29.79 in 10.0 mi SSW 8.1 mph - N/A   Overcast
6:46 AM 57.2 °F - 55.4 °F 94% 29.80 in 4.0 mi West 11.5 mph 18.4 mph 0.03 in Rain Light Rain
7:13 AM 50.0 °F - 50.0 °F 100% 29.84 in 10.0 mi NW 18.4 mph 26.5 mph 0.00 in   Overcast
7:53 AM 48.0 °F - 48.0 °F 100% 29.86 in 5.0 mi NW 16.1 mph 27.6 mph 0.03 in Rain Light Rain
8:25 AM 42.8 °F 35.4 °F 42.8 °F 100% 29.90 in 1.8 mi NW 15.0 mph 27.6 mph 0.10 in Rain Rain
8:34 AM 42.8 °F 36.2 °F 42.8 °F 100% 29.90 in 1.8 mi NW 12.7 mph 24.2 mph 0.14 in Rain Light Rain
8:37 AM 42.8 °F 35.4 °F - N/A% 29.90 in 3.0 mi NW 15.0 mph 27.6 mph 0.14 in Rain Light Rain
8:53 AM 42.1 °F 33.6 °F 42.1 °F 100% 29.91 in 6.0 mi NW 18.4 mph 31.1 mph 0.15 in Rain Light Rain
9:53 AM 41.0 °F 32.2 °F 41.0 °F 100% 29.99 in 10.0 mi NW 18.4 mph 33.4 mph 0.09 in Rain Light Rain
10:48 AM 42.8 °F 34.8 °F 42.8 °F 100% 29.99 in 10.0 mi NNW 17.3 mph 29.9 mph 0.00 in   Overcast
10:53 AM 44.1 °F 37.1 °F 43.0 °F 96% 29.99 in 10.0 mi NNW 15.0 mph 29.9 mph 0.00 in   Mostly Cloudy
11:20 AM 44.6 °F 36.9 °F 42.8 °F 93% 30.02 in 10.0 mi NW 18.4 mph 34.5 mph N/A   Mostly Cloudy
11:53 AM 46.0 °F 38.0 °F 44.1 °F 93% 30.02 in 10.0 mi NW 21.9 mph 31.1 mph N/A   Mostly Cloudy
12:07 PM 44.6 °F 36.6 °F 37.4 °F 76% 30.03 in 10.0 mi NW 19.6 mph 36.8 mph N/A   Mostly Cloudy
12:19 PM 44.6 °F 37.8 °F 35.6 °F 71% 30.03 in 10.0 mi NNW 15.0 mph 34.5 mph N/A   Overcast
12:53 PM 46.9 °F - 34.0 °F 61% 30.03 in 10.0 mi NW 18.4 mph 31.1 mph N/A   Mostly Cloudy
1:53 PM 46.9 °F - 33.1 °F 59% 30.03 in 10.0 mi NW 15.0 mph 26.5 mph N/A   Mostly Cloudy
2:53 PM 48.9 °F - 32.0 °F 52% 30.04 in 10.0 mi NW 18.4 mph 27.6 mph N/A   Partly Cloudy
3:53 PM 50.0 °F - 32.0 °F 50% 30.06 in 10.0 mi NW 13.8 mph 25.3 mph N/A   Clear
4:53 PM 48.0 °F - 26.1 °F 42% 30.08 in 10.0 mi NW 13.8 mph 25.3 mph N/A   Clear
5:53 PM 44.1 °F 38.1 °F 26.1 °F 49% 30.10 in 10.0 mi NW 11.5 mph 18.4 mph N/A   Clear
6:53 PM 43.0 °F 38.2 °F 26.1 °F 51% 30.12 in 10.0 mi NW 8.1 mph - N/A   Clear
7:53 PM 39.9 °F 37.8 °F 28.0 °F 63% 30.14 in 10.0 mi WNW 3.5 mph - N/A   Clear
8:53 PM 39.9 °F 33.4 °F 26.1 °F 58% 30.17 in 10.0 mi NW 10.4 mph 18.4 mph N/A   Clear
9:53 PM 39.0 °F 33.4 °F 26.1 °F 60% 30.20 in 10.0 mi NW 8.1 mph 19.6 mph N/A   Mostly Cloudy
10:53 PM 36.0 °F 30.3 °F 26.1 °F 67% 30.21 in 10.0 mi NW 6.9 mph - N/A   Clear
11:53 PM 36.0 °F 29.6 °F 25.0 °F 64% 30.21 in 10.0 mi NW 8.1 mph - N/A   Clear